When you browse on this site, cookies collect data to enhance your experience and personalize the content and advertising you see.
Visit our Privacy Policy to learn more. By continuing to use the site, you agree to this use of cookies and data.
  • en Belgique
  • Liste des pays
  • À 7 jours
  • Température de l'eau
  • Carte satellitaire
  • Carte météo
  • Widgets météo
  • user-avatar
    Se connecter

    Météo par heure à Koptyazhiha

    Ce jour, 24 Juin, Lundi

    Heure Température Précipitation Vent Pression Humidité
    00:00 +13°C° 0 mm 1 m/s 752 mmHg 73%
    01:00 +12°C° 0 mm 1 m/s 752 mmHg 70%
    02:00 +11°C° 0 mm 1 m/s 753 mmHg 72%
    03:00 +12°C° 0 mm 1 m/s 753 mmHg 70%
    04:00 +13°C° 0 mm 1 m/s 753 mmHg 67%
    05:00 +14°C° 0 mm 1 m/s 753 mmHg 65%
    06:00 +16°C° 0 mm 1 m/s 753 mmHg 58%
    07:00 +18°C° 0 mm 1 m/s 753 mmHg 52%
    08:00 +20°C° 0 mm 1 m/s 753 mmHg 45%
    09:00 +20°C° 0 mm 2 m/s 753 mmHg 44%
    10:00 +20°C° 0 mm 3 m/s 753 mmHg 44%
    11:00 +20°C° 0 mm 4 m/s 753 mmHg 44%
    12:00 +20°C° 0.1 mm 4 m/s 753 mmHg 46%
    13:00 +20°C° 0.1 mm 4 m/s 753 mmHg 49%
    14:00 +19°C° 0.1 mm 4 m/s 753 mmHg 52%
    15:00 +20°C° 0 mm 4 m/s 753 mmHg 50%
    16:00 +20°C° 0 mm 3 m/s 753 mmHg 49%
    17:00 +20°C° 0 mm 3 m/s 753 mmHg 47%
    18:00 +19°C° 0.1 mm 3 m/s 754 mmHg 57%
    19:00 +17°C° 0.1 mm 2 m/s 754 mmHg 67%
    20:00 +15°C° 0.1 mm 2 m/s 754 mmHg 77%
    21:00 +14°C° 0 mm 2 m/s 754 mmHg 76%
    22:00 +13°C° 0 mm 2 m/s 754 mmHg 76%
    23:00 +12°C° 0 mm 2 m/s 755 mmHg 75%

    Demain, 25 Juin, Mardi

    Heure Température Précipitation Vent Pression Humidité
    00:00 +12°C° 0 mm 2 m/s 755 mmHg 76%
    01:00 +10°C° 0 mm 2 m/s 756 mmHg 76%
    02:00 +9°C° 0 mm 2 m/s 756 mmHg 77%
    03:00 +10°C° 0 mm 2 m/s 756 mmHg 75%
    04:00 +10°C° 0 mm 2 m/s 756 mmHg 73%
    05:00 +12°C° 0 mm 2 m/s 756 mmHg 71%
    06:00 +14°C° 0 mm 2 m/s 756 mmHg 65%
    07:00 +16°C° 0 mm 2 m/s 757 mmHg 60%
    08:00 +17°C° 0 mm 2 m/s 757 mmHg 54%
    09:00 +18°C° 0 mm 2 m/s 757 mmHg 50%
    10:00 +20°C° 0 mm 3 m/s 757 mmHg 45%
    11:00 +21°C° 0 mm 3 m/s 756 mmHg 41%
    12:00 +20°C° 0 mm 3 m/s 756 mmHg 42%
    13:00 +20°C° 0 mm 3 m/s 756 mmHg 43%
    14:00 +20°C° 0 mm 2 m/s 756 mmHg 44%
    15:00 +20°C° 0 mm 2 m/s 756 mmHg 47%
    16:00 +20°C° 0 mm 2 m/s 756 mmHg 50%
    17:00 +21°C° 0 mm 1 m/s 756 mmHg 53%
    18:00 +19°C° 0 mm 1 m/s 755 mmHg 60%
    19:00 +18°C° 0 mm 1 m/s 755 mmHg 66%
    20:00 +15°C° 0 mm 1 m/s 755 mmHg 73%
    21:00 +15°C° 0 mm 1 m/s 755 mmHg 75%
    22:00 +14°C° 0 mm 1 m/s 755 mmHg 76%
    23:00 +13°C° 0 mm 1 m/s 755 mmHg 77%

    Après-demain, 26 Juin, Mercredi

    Heure Température Précipitation Vent Pression Humidité
    00:00 +13°C° 0 mm 1 m/s 754 mmHg 76%
    01:00 +13°C° 0 mm 1 m/s 754 mmHg 75%
    02:00 +13°C° 0 mm 1 m/s 754 mmHg 73%
    03:00 +14°C° 0 mm 1 m/s 754 mmHg 73%
    04:00 +14°C° 0 mm 2 m/s 753 mmHg 72%
    05:00 +14°C° 0 mm 2 m/s 753 mmHg 72%
    06:00 +16°C° 0 mm 2 m/s 753 mmHg 66%
    07:00 +17°C° 0 mm 3 m/s 753 mmHg 61%
    08:00 +18°C° 0 mm 3 m/s 753 mmHg 55%
    09:00 +19°C° 0 mm 3 m/s 752 mmHg 51%
    10:00 +20°C° 0 mm 3 m/s 752 mmHg 47%
    11:00 +20°C° 0 mm 3 m/s 752 mmHg 43%
    12:00 +20°C° 0.2 mm 3 m/s 751 mmHg 51%
    13:00 +19°C° 0.2 mm 3 m/s 751 mmHg 60%
    14:00 +18°C° 0.2 mm 3 m/s 751 mmHg 68%
    15:00 +19°C° 0.2 mm 3 m/s 750 mmHg 67%
    16:00 +19°C° 0.2 mm 2 m/s 750 mmHg 65%
    17:00 +19°C° 0.2 mm 2 m/s 749 mmHg 64%
    18:00 +17°C° 0.1 mm 2 m/s 749 mmHg 71%
    19:00 +16°C° 0.1 mm 1 m/s 749 mmHg 78%
    20:00 +13°C° 0.1 mm 0 m/s 748 mmHg 84%
    21:00 +12°C° 0 mm 0 m/s 748 mmHg 87%
    22:00 +11°C° 0 mm 0 m/s 748 mmHg 89%
    23:00 +11°C° 0 mm 1 m/s 747 mmHg 91%

    27 Juin, Jeudi

    Heure Température Précipitation Vent Pression Humidité
    00:00 +11°C° 0 mm 1 m/s 747 mmHg 92%
    01:00 +11°C° 0 mm 1 m/s 746 mmHg 93%
    02:00 +10°C° 0 mm 1 m/s 746 mmHg 94%
    03:00 +10°C° 0 mm 2 m/s 745 mmHg 91%
    04:00 +12°C° 0 mm 2 m/s 745 mmHg 89%
    05:00 +13°C° 0 mm 2 m/s 744 mmHg 86%
    06:00 +13°C° 0 mm 3 m/s 744 mmHg 79%
    07:00 +16°C° 0 mm 3 m/s 743 mmHg 73%
    08:00 +17°C° 0 mm 4 m/s 743 mmHg 66%
    09:00 +18°C° 0 mm 4 m/s 742 mmHg 64%
    10:00 +18°C° 0 mm 3 m/s 741 mmHg 62%
    11:00 +19°C° 0 mm 3 m/s 740 mmHg 61%
    12:00 +18°C° 0.1 mm 3 m/s 740 mmHg 64%
    13:00 +18°C° 0.1 mm 3 m/s 739 mmHg 68%
    14:00 +18°C° 0.1 mm 3 m/s 739 mmHg 72%
    15:00 +17°C° 0 mm 3 m/s 738 mmHg 72%
    16:00 +16°C° 0 mm 3 m/s 737 mmHg 73%
    17:00 +16°C° 0 mm 2 m/s 737 mmHg 74%
    18:00 +15°C° 0 mm 2 m/s 737 mmHg 77%
    19:00 +15°C° 0 mm 2 m/s 736 mmHg 80%
    20:00 +14°C° 0 mm 2 m/s 736 mmHg 83%
    21:00 +14°C° 0.1 mm 2 m/s 736 mmHg 87%
    22:00 +14°C° 0.1 mm 2 m/s 735 mmHg 90%
    23:00 +13°C° 0.1 mm 2 m/s 735 mmHg 93%

    28 Juin, Vendredi

    Heure Température Précipitation Vent Pression Humidité
    00:00 +12°C° 0.1 mm 3 m/s 735 mmHg 93%
    01:00 +12°C° 0.1 mm 3 m/s 734 mmHg 92%
    02:00 +12°C° 0.1 mm 3 m/s 734 mmHg 92%
    03:00 +12°C° 0.2 mm 3 m/s 734 mmHg 92%
    04:00 +11°C° 0.2 mm 4 m/s 733 mmHg 92%
    05:00 +11°C° 0.2 mm 4 m/s 733 mmHg 92%
    06:00 +12°C° 0.2 mm 4 m/s 733 mmHg 89%
    07:00 +12°C° 0.2 mm 4 m/s 732 mmHg 86%
    08:00 +12°C° 0.2 mm 5 m/s 732 mmHg 82%
    09:00 +12°C° 0.8 mm 5 m/s 732 mmHg 86%
    10:00 +12°C° 0.8 mm 5 m/s 732 mmHg 89%
    11:00 +12°C° 0.8 mm 5 m/s 732 mmHg 93%
    12:00 +12°C° 1.5 mm 5 m/s 732 mmHg 94%
    13:00 +10°C° 1.5 mm 5 m/s 731 mmHg 95%
    14:00 +10°C° 1.5 mm 5 m/s 731 mmHg 96%
    15:00 +10°C° 0.5 mm 5 m/s 731 mmHg 96%
    16:00 +11°C° 0.5 mm 4 m/s 731 mmHg 97%
    17:00 +11°C° 0.5 mm 4 m/s 731 mmHg 97%
    18:00 +11°C° 0.5 mm 4 m/s 731 mmHg 97%
    19:00 +10°C° 0.5 mm 4 m/s 731 mmHg 97%
    20:00 +10°C° 0.5 mm 4 m/s 731 mmHg 97%
    21:00 +10°C° 0.6 mm 4 m/s 730 mmHg 98%
    22:00 +10°C° 0.6 mm 4 m/s 730 mmHg 98%
    23:00 +10°C° 0.6 mm 4 m/s 730 mmHg 98%

    29 Juin, Samedi

    Heure Température Précipitation Vent Pression Humidité
    00:00 +10°C° 2.9 mm 4 m/s 729 mmHg 98%
    01:00 +10°C° 2.9 mm 4 m/s 729 mmHg 98%
    02:00 +10°C° 2.9 mm 4 m/s 729 mmHg 98%
    03:00 +11°C° 1.6 mm 4 m/s 728 mmHg 98%
    04:00 +11°C° 1.6 mm 4 m/s 728 mmHg 98%
    05:00 +11°C° 1.6 mm 4 m/s 728 mmHg 98%
    06:00 +12°C° 0.3 mm 3 m/s 728 mmHg 98%
    07:00 +12°C° 0.3 mm 3 m/s 728 mmHg 98%
    08:00 +13°C° 0.3 mm 3 m/s 729 mmHg 97%
    09:00 +13°C° 0.6 mm 3 m/s 729 mmHg 97%
    10:00 +13°C° 0.6 mm 3 m/s 729 mmHg 97%
    11:00 +14°C° 0.6 mm 4 m/s 730 mmHg 96%
    12:00 +14°C° 0.9 mm 4 m/s 730 mmHg 95%
    13:00 +15°C° 0.9 mm 4 m/s 730 mmHg 94%
    14:00 +15°C° 0.9 mm 5 m/s 730 mmHg 93%
    15:00 +15°C° 0.8 mm 5 m/s 731 mmHg 93%
    16:00 +15°C° 0.8 mm 5 m/s 731 mmHg 93%
    17:00 +15°C° 0.8 mm 5 m/s 731 mmHg 93%
    18:00 +14°C° 0.3 mm 5 m/s 732 mmHg 94%
    19:00 +14°C° 0.3 mm 5 m/s 732 mmHg 95%
    20:00 +13°C° 0.3 mm 5 m/s 732 mmHg 96%
    21:00 +13°C° 0.1 mm 5 m/s 733 mmHg 97%
    22:00 +13°C° 0.1 mm 4 m/s 733 mmHg 97%
    23:00 +13°C° 0.1 mm 4 m/s 733 mmHg 97%
    Voir plus